Location: Saint-Hippolyte
(43.6394°N, 4.7559°E)
Time: 15:28:55
(UTC+00:00)

Okean O Rocket - Pass Details

Date: 24 October 2020
Orbit: 622 x 645 km, 98.2° (Epoch: 24 November)

Event Time Altitude Azimuth Distance (km) Brightness Sun altitude
Rises 17:09:41 0° 169° (S) 2,914 5.0 -5.6°
Reaches altitude 10° 17:11:53 10° 171° (S) 2,007 4.2 -6.0°
Maximum altitude 17:16:15 76° 256° (WSW) 653 1.9 -6.7°
Drops below altitude 10° 17:20:38 10° 344° (NNW) 2,011 4.3 -7.5°
Sets 17:22:50 0° 346° (NNW) 2,920 5.1 -7.9°
